RYS7264 LCPH-EPKT

Flight info

Callsign RYS7264
Flight time N/A
Altitude 38000
Route GENOS DCT PEDER M855 TOMBI UM855 AYT UQ26 TUDBU DCT AMTOV DCT APROB DCT NARKA DCT ABULI DCT REDSI DCT MEBAN
Aircraft B738/M-SDFGIJ1LRWY/SB1

Departure

Time 2026-05-07 03:37
Airport Paphos International Airport (LCPH)

Arrival

Time N/A
Airport Katowice Wojciech Korfanty International Airport (EPKT)
Time Latitude Longitude Altitude Speed Heading
2026-05-07 02:55 34.71313 32.48661 28 ft 0 kts 155°
2026-05-07 03:29 34.71318 32.48658 28 ft 2 kts 155°
2026-05-07 03:29 34.71332 32.48651 27 ft 2 kts 155°
2026-05-07 03:29 34.71346 32.48643 27 ft 2 kts 155°
2026-05-07 03:29 34.71357 32.48637 27 ft 0 kts 155°
2026-05-07 03:30 34.71368 32.48629 27 ft 2 kts 133°
2026-05-07 03:30 34.71376 32.48614 27 ft 2 kts 106°
2026-05-07 03:30 34.71377 32.48596 27 ft 2 kts 78°
2026-05-07 03:30 34.71375 32.48587 27 ft 1 kts 63°
2026-05-07 03:31 34.71372 32.48581 27 ft 0 kts 64°
2026-05-07 03:33 34.71373 32.48582 27 ft 1 kts 64°
2026-05-07 03:33 34.71394 32.48636 27 ft 12 kts 64°
2026-05-07 03:34 34.71441 32.48759 29 ft 17 kts 65°
2026-05-07 03:34 34.71485 32.48879 31 ft 14 kts 65°
2026-05-07 03:34 34.71533 32.48967 33 ft 11 kts 23°
2026-05-07 03:34 34.71611 32.49004 36 ft 10 kts 21°
2026-05-07 03:35 34.71632 32.49089 37 ft 15 kts 108°
2026-05-07 03:35 34.71587 32.49240 38 ft 22 kts 110°
2026-05-07 03:35 34.71522 32.49453 40 ft 29 kts 110°
2026-05-07 03:35 34.71455 32.49674 39 ft 18 kts 109°
2026-05-07 03:36 34.71407 32.49765 38 ft 12 kts 139°
2026-05-07 03:36 34.71379 32.49836 38 ft 8 kts 40°
2026-05-07 03:36 34.71423 32.49778 38 ft 18 kts 289°
2026-05-07 03:36 34.71547 32.49366 39 ft 90 kts 290°
2026-05-07 03:37 34.71844 32.48386 47 ft 154 kts 290°
2026-05-07 03:37 34.72238 32.47050 519 ft 173 kts 291°
2026-05-07 03:37 34.72457 32.45629 1294 ft 180 kts 266°
2026-05-07 03:37 34.72195 32.44078 1871 ft 196 kts 255°
2026-05-07 03:38 34.71802 32.42439 2410 ft 213 kts 255°
2026-05-07 03:38 34.71355 32.40634 2957 ft 231 kts 254°
2026-05-07 03:38 34.70882 32.38736 3590 ft 246 kts 255°
2026-05-07 03:38 34.70403 32.36732 4466 ft 251 kts 256°
2026-05-07 03:39 34.69932 32.34611 5092 ft 268 kts 257°
2026-05-07 03:39 34.69455 32.32400 5815 ft 279 kts 256°
2026-05-07 03:39 34.68957 32.30105 6728 ft 284 kts 257°
2026-05-07 03:39 34.68456 32.27814 7736 ft 284 kts 257°
2026-05-07 03:40 34.67948 32.25506 8679 ft 286 kts 258°
2026-05-07 03:40 34.67438 32.23198 9585 ft 288 kts 258°
2026-05-07 03:40 34.66925 32.20877 10479 ft 290 kts 258°
2026-05-07 03:40 34.66398 32.18474 11058 ft 304 kts 259°
2026-05-07 03:41 34.66032 32.15905 11625 ft 314 kts 269°
2026-05-07 03:41 34.66072 32.13192 12191 ft 326 kts 277°
2026-05-07 03:41 34.66302 32.10480 12972 ft 330 kts 279°
2026-05-07 03:41 34.66569 32.07697 13874 ft 332 kts 279°
2026-05-07 03:42 34.66819 32.04917 14660 ft 337 kts 278°
2026-05-07 03:42 34.67044 32.02101 15496 ft 339 kts 278°
2026-05-07 03:42 34.67254 31.99263 16288 ft 342 kts 277°
2026-05-07 03:42 34.67458 31.96359 17061 ft 346 kts 277°
2026-05-07 03:43 34.67688 31.93483 17801 ft 348 kts 280°
2026-05-07 03:43 34.68150 31.90610 18550 ft 349 kts 288°
2026-05-07 03:43 34.69013 31.87860 19268 ft 350 kts 297°
2026-05-07 03:43 34.70145 31.85234 19991 ft 352 kts 301°
2026-05-07 03:44 34.71373 31.82684 20654 ft 356 kts 302°
2026-05-07 03:44 34.72651 31.80124 21341 ft 358 kts 302°
2026-05-07 03:44 34.73953 31.77527 21953 ft 362 kts 302°
2026-05-07 03:44 34.75256 31.74915 22614 ft 365 kts 302°
2026-05-07 03:45 34.76560 31.72277 23275 ft 367 kts 302°
2026-05-07 03:45 34.77867 31.69615 23890 ft 370 kts 302°
2026-05-07 03:45 34.79192 31.66899 24457 ft 374 kts 302°
2026-05-07 03:45 34.80518 31.64177 25058 ft 376 kts 302°
2026-05-07 03:46 34.81856 31.61422 25583 ft 381 kts 302°
2026-05-07 03:46 34.83202 31.58650 26128 ft 384 kts 302°
2026-05-07 03:46 34.84543 31.55884 26674 ft 387 kts 302°
2026-05-07 03:46 34.85923 31.53034 27226 ft 390 kts 302°
2026-05-07 03:47 34.87291 31.50202 27743 ft 393 kts 301°
2026-05-07 03:47 34.88678 31.47332 28263 ft 396 kts 301°
2026-05-07 03:47 34.90100 31.44385 28808 ft 398 kts 301°
2026-05-07 03:47 34.91512 31.41456 29225 ft 403 kts 301°
2026-05-07 03:48 34.92912 31.38551 29753 ft 404 kts 301°
2026-05-07 03:48 34.94336 31.35590 30208 ft 407 kts 301°
2026-05-07 03:48 34.95775 31.32596 30566 ft 412 kts 301°
2026-05-07 03:48 34.97228 31.29572 31049 ft 414 kts 301°
2026-05-07 03:49 34.98687 31.26537 31639 ft 413 kts 301°
2026-05-07 03:49 35.00121 31.23550 32293 ft 410 kts 300°
2026-05-07 03:49 35.01549 31.20574 32871 ft 408 kts 300°
2026-05-07 03:49 35.02970 31.17608 33391 ft 408 kts 300°
2026-05-07 03:50 35.04407 31.14606 33899 ft 408 kts 300°
2026-05-07 03:50 35.05832 31.11623 34367 ft 407 kts 300°
2026-05-07 03:50 35.07251 31.08651 34792 ft 406 kts 300°
2026-05-07 03:50 35.08660 31.05697 35138 ft 406 kts 300°
2026-05-07 03:51 35.10080 31.02721 35555 ft 405 kts 300°
2026-05-07 03:51 35.11480 30.99783 35933 ft 404 kts 300°
2026-05-07 03:51 35.12921 30.96827 36318 ft 404 kts 302°
2026-05-07 03:51 35.14513 30.94047 36768 ft 403 kts 308°
2026-05-07 03:52 35.16366 30.91522 37528 ft 397 kts 314°
2026-05-07 03:52 35.18443 30.89291 37957 ft 397 kts 320°
2026-05-07 03:52 35.20767 30.87443 38076 ft 404 kts 332°